Location: Fort Worth, Tx
(32.7431°N, 97.3695°W)
Time: 10:47:38
(UTC-04:00)

Explorer 11/Cluster Stage 4 - Pass Details

Date: 26 February 2024
Orbit: 465 x 1219 km, 28.8° (Epoch: 24 April)

Event Time Altitude Azimuth Distance (km) Brightness Sun altitude
Exits shadow 04:39:03 20° 109° (ESE) 2,123 9.1 -42.8°
Drops below altitude 10° 04:40:44 10° 105° (ESE) 2,668 9.7 -42.5°
Sets 04:43:10 0° 102° (ESE) 3,501 10.5 -42.0°
